JBU509 KJFK-MDSD

Flight info

Callsign JBU509
Flight time 3h 7m
Altitude 33000
Route SHIPP Y488 WEBBB/M078F330 Y488 SAUCR L453 LAMER/N0462F330 L453 RODRK DCT POKEG UT17 KOBET DCT KERSO
Aircraft A21N/M-SDE2E3FGHIRWXY/LB1

Departure

Time 2026-05-06 17:21
Airport John F. Kennedy International Airport (KJFK)

Arrival

Time 2026-05-06 20:28
Airport Las Américas International Airport (MDSD)
Time Latitude Longitude Altitude Speed Heading
2026-05-06 16:20 40.64633 -73.77451 22 ft 0 kts 192°
2026-05-06 17:12 40.64644 -73.77447 21 ft 2 kts 191°
2026-05-06 17:12 40.64659 -73.77443 21 ft 2 kts 192°
2026-05-06 17:13 40.64674 -73.77439 21 ft 2 kts 192°
2026-05-06 17:13 40.64689 -73.77434 21 ft 2 kts 184°
2026-05-06 17:13 40.64703 -73.77440 21 ft 2 kts 147°
2026-05-06 17:13 40.64714 -73.77454 21 ft 2 kts 115°
2026-05-06 17:14 40.64720 -73.77470 21 ft 1 kts 120°
2026-05-06 17:15 40.64717 -73.77463 21 ft 3 kts 121°
2026-05-06 17:16 40.64690 -73.77406 21 ft 9 kts 119°
2026-05-06 17:16 40.64715 -73.77365 21 ft 9 kts 335°
2026-05-06 17:16 40.64779 -73.77343 21 ft 11 kts 66°
2026-05-06 17:16 40.64753 -73.77248 21 ft 12 kts 121°
2026-05-06 17:17 40.64775 -73.77160 21 ft 12 kts 52°
2026-05-06 17:17 40.64829 -73.77063 21 ft 13 kts 54°
2026-05-06 17:17 40.64888 -73.76952 21 ft 15 kts 55°
2026-05-06 17:17 40.64909 -73.76837 21 ft 12 kts 115°
2026-05-06 17:18 40.64869 -73.76731 21 ft 12 kts 99°
2026-05-06 17:18 40.64928 -73.76655 21 ft 13 kts 32°
2026-05-06 17:18 40.65017 -73.76582 21 ft 15 kts 31°
2026-05-06 17:18 40.65104 -73.76505 21 ft 11 kts 58°
2026-05-06 17:19 40.65090 -73.76434 21 ft 0 kts 118°
2026-05-06 17:19 40.65084 -73.76419 21 ft 5 kts 118°
2026-05-06 17:19 40.65054 -73.76352 21 ft 8 kts 135°
2026-05-06 17:20 40.65012 -73.76363 21 ft 0 kts 211°
2026-05-06 17:20 40.64940 -73.76419 21 ft 41 kts 210°
2026-05-06 17:20 40.64488 -73.76769 22 ft 107 kts 210°
2026-05-06 17:20 40.63676 -73.77409 33 ft 159 kts 210°
2026-05-06 17:21 40.62720 -73.78216 596 ft 162 kts 211°
2026-05-06 17:21 40.61834 -73.79050 1280 ft 158 kts 212°
2026-05-06 17:21 40.60921 -73.79868 1904 ft 159 kts 202°
2026-05-06 17:21 40.59830 -73.80222 2258 ft 167 kts 186°
2026-05-06 17:22 40.58630 -73.80310 2540 ft 182 kts 180°
2026-05-06 17:22 40.57394 -73.79668 2794 ft 208 kts 142°
2026-05-06 17:22 40.56507 -73.78017 3025 ft 234 kts 129°
2026-05-06 17:22 40.55636 -73.76135 3342 ft 252 kts 130°
2026-05-06 17:23 40.54698 -73.74087 3757 ft 267 kts 130°
2026-05-06 17:23 40.53724 -73.71983 4430 ft 271 kts 130°
2026-05-06 17:23 40.52759 -73.69861 5176 ft 273 kts 129°
2026-05-06 17:23 40.51766 -73.67722 5843 ft 278 kts 129°
2026-05-06 17:24 40.50775 -73.65556 6533 ft 281 kts 131°
2026-05-06 17:24 40.49757 -73.63348 7224 ft 284 kts 130°
2026-05-06 17:24 40.48735 -73.61136 7896 ft 287 kts 130°
2026-05-06 17:24 40.47686 -73.58872 8547 ft 290 kts 130°
2026-05-06 17:25 40.46646 -73.56610 9189 ft 294 kts 129°
2026-05-06 17:25 40.45594 -73.54306 9771 ft 299 kts 130°
2026-05-06 17:25 40.44505 -73.51936 10317 ft 306 kts 131°
2026-05-06 17:25 40.43368 -73.49511 10641 ft 320 kts 130°
2026-05-06 17:26 40.42176 -73.46967 10924 ft 336 kts 130°
2026-05-06 17:26 40.40932 -73.44289 11216 ft 351 kts 130°
2026-05-06 17:26 40.39632 -73.41498 11529 ft 364 kts 129°
2026-05-06 17:26 40.38327 -73.38677 12060 ft 368 kts 129°
2026-05-06 17:27 40.36988 -73.35780 12661 ft 372 kts 128°
2026-05-06 17:27 40.35648 -73.32897 13185 ft 374 kts 128°
2026-05-06 17:27 40.34295 -73.29961 13626 ft 380 kts 128°
2026-05-06 17:27 40.32916 -73.26984 14122 ft 383 kts 129°
2026-05-06 17:28 40.31533 -73.24007 14549 ft 387 kts 129°
2026-05-06 17:28 40.30114 -73.20956 15017 ft 390 kts 129°
2026-05-06 17:28 40.28708 -73.17937 15457 ft 395 kts 128°
2026-05-06 17:28 40.27268 -73.14841 15858 ft 400 kts 128°
2026-05-06 17:29 40.25815 -73.11709 16289 ft 405 kts 128°
2026-05-06 17:29 40.24358 -73.08567 16732 ft 409 kts 128°
2026-05-06 17:29 40.22881 -73.05386 17150 ft 412 kts 128°
2026-05-06 17:29 40.21384 -73.02184 17502 ft 416 kts 127°
2026-05-06 17:30 40.19868 -72.98921 17872 ft 421 kts 127°
2026-05-06 17:30 40.18336 -72.95625 18270 ft 425 kts 127°
2026-05-06 17:30 40.16801 -72.92324 18710 ft 427 kts 127°
2026-05-06 17:30 40.15259 -72.89015 19145 ft 429 kts 127°
2026-05-06 17:31 40.13701 -72.85681 19539 ft 432 kts 127°
2026-05-06 17:31 40.12134 -72.82335 19927 ft 434 kts 127°
2026-05-06 17:31 40.10556 -72.78973 20330 ft 435 kts 127°
2026-05-06 17:31 40.08982 -72.75615 20755 ft 437 kts 127°
2026-05-06 17:32 40.07405 -72.72244 21132 ft 438 kts 127°
2026-05-06 17:32 40.05812 -72.68861 21465 ft 440 kts 127°
2026-05-06 17:32 40.04207 -72.65459 21754 ft 443 kts 127°
2026-05-06 17:32 40.02590 -72.62034 22094 ft 446 kts 127°
2026-05-06 17:33 40.00963 -72.58575 22463 ft 447 kts 127°
2026-05-06 17:33 39.99336 -72.55125 22821 ft 449 kts 126°
2026-05-06 17:33 39.97706 -72.51666 23144 ft 451 kts 127°
2026-05-06 17:33 39.96090 -72.48192 23466 ft 453 kts 126°
2026-05-06 17:34 39.94495 -72.44590 23796 ft 457 kts 124°
2026-05-06 17:34 39.92920 -72.40986 24093 ft 459 kts 124°
2026-05-06 17:34 39.91349 -72.37378 24370 ft 461 kts 124°
2026-05-06 17:34 39.89746 -72.33717 24671 ft 464 kts 124°
2026-05-06 17:35 39.88125 -72.30023 24946 ft 467 kts 124°
2026-05-06 17:35 39.86510 -72.26350 25225 ft 469 kts 125°
2026-05-06 17:35 39.84898 -72.22699 25512 ft 472 kts 124°
2026-05-06 17:36 39.81600 -72.15239 26048 ft 476 kts 124°
2026-05-06 17:36 39.79952 -72.11515 26328 ft 478 kts 124°
2026-05-06 17:36 39.78280 -72.07761 26577 ft 480 kts 124°
2026-05-06 17:36 39.76601 -72.04001 26781 ft 483 kts 126°
2026-05-06 17:37 39.74727 -72.00356 26943 ft 483 kts 131°
2026-05-06 17:37 39.72571 -71.96999 27179 ft 480 kts 138°
2026-05-06 17:37 39.70193 -71.93957 27443 ft 479 kts 142°
2026-05-06 17:37 39.67748 -71.91040 27656 ft 480 kts 143°
2026-05-06 17:38 39.65269 -71.88115 27884 ft 482 kts 143°
2026-05-06 17:38 39.62810 -71.85207 28079 ft 485 kts 143°
2026-05-06 17:38 39.60301 -71.82220 28261 ft 488 kts 143°
2026-05-06 17:38 39.57817 -71.79252 28479 ft 490 kts 143°
2026-05-06 17:39 39.55315 -71.76260 28677 ft 493 kts 143°
2026-05-06 17:39 39.52703 -71.73409 28872 ft 489 kts 149°
2026-05-06 17:39 39.49855 -71.70980 29075 ft 485 kts 156°
2026-05-06 17:39 39.46882 -71.69154 29253 ft 475 kts 169°
2026-05-06 17:40 39.43671 -71.68380 29489 ft 457 kts 185°
2026-05-06 17:40 39.40578 -71.68685 29783 ft 441 kts 199°
2026-05-06 17:40 39.37597 -71.69469 30077 ft 439 kts 200°
2026-05-06 17:40 39.34582 -71.70296 30320 ft 441 kts 200°
2026-05-06 17:41 39.31583 -71.71111 30613 ft 440 kts 201°
2026-05-06 17:41 39.28597 -71.71911 30869 ft 441 kts 200°
2026-05-06 17:41 39.25599 -71.72708 31067 ft 444 kts 200°
2026-05-06 17:41 39.22519 -71.73516 31393 ft 443 kts 201°
2026-05-06 17:42 39.19503 -71.74303 31601 ft 444 kts 201°
2026-05-06 17:42 39.16483 -71.75092 31738 ft 447 kts 201°
2026-05-06 17:42 39.13407 -71.75890 31925 ft 450 kts 201°
2026-05-06 17:42 39.10352 -71.76681 32126 ft 451 kts 201°
2026-05-06 17:43 39.07283 -71.77470 32357 ft 452 kts 201°
2026-05-06 17:43 39.04183 -71.78265 32572 ft 453 kts 201°
2026-05-06 17:43 39.01091 -71.79061 32775 ft 454 kts 201°
2026-05-06 17:43 38.98014 -71.79852 32925 ft 457 kts 201°
2026-05-06 17:44 38.94876 -71.80660 33038 ft 459 kts 201°
2026-05-06 17:44 38.91756 -71.81463 33035 ft 459 kts 201°
2026-05-06 17:44 38.85509 -71.83062 33034 ft 461 kts 201°
2026-05-06 17:45 38.79221 -71.84664 33038 ft 459 kts 201°
2026-05-06 17:45 38.72915 -71.86266 33041 ft 461 kts 200°
2026-05-06 17:46 38.66650 -71.87860 33046 ft 461 kts 200°
2026-05-06 17:46 38.60332 -71.89452 33041 ft 463 kts 200°
2026-05-06 17:47 38.54010 -71.91053 33041 ft 463 kts 200°
2026-05-06 17:47 38.47713 -71.92645 33046 ft 463 kts 200°
2026-05-06 17:48 38.41357 -71.94259 33049 ft 464 kts 200°
2026-05-06 17:48 38.35030 -71.95863 33044 ft 465 kts 200°
2026-05-06 17:49 38.28692 -71.97463 33046 ft 467 kts 200°
2026-05-06 17:49 38.22266 -71.99078 33050 ft 467 kts 200°
2026-05-06 17:50 38.15896 -72.00678 33055 ft 469 kts 200°
2026-05-06 17:50 38.09493 -72.02281 33053 ft 468 kts 200°
2026-05-06 17:51 38.03052 -72.03895 33051 ft 470 kts 200°
2026-05-06 17:51 37.96628 -72.05498 33058 ft 471 kts 200°
2026-05-06 17:52 37.90176 -72.07100 33061 ft 471 kts 200°
2026-05-06 17:52 37.83759 -72.08704 33063 ft 473 kts 200°
2026-05-06 17:53 37.77272 -72.10321 33066 ft 474 kts 200°
2026-05-06 17:53 37.70812 -72.11924 33068 ft 473 kts 200°
2026-05-06 17:54 37.64345 -72.13525 33065 ft 472 kts 200°
2026-05-06 17:54 37.57848 -72.15128 33068 ft 471 kts 200°
2026-05-06 17:55 37.51390 -72.16727 33070 ft 472 kts 200°
2026-05-06 17:55 37.44891 -72.18333 33076 ft 471 kts 200°
2026-05-06 17:56 37.38477 -72.19909 33073 ft 473 kts 200°
2026-05-06 17:56 37.31962 -72.21506 33075 ft 474 kts 200°
2026-05-06 17:57 37.25589 -72.23319 33076 ft 467 kts 205°
2026-05-06 17:57 37.19474 -72.25963 33078 ft 460 kts 211°
2026-05-06 17:58 37.13653 -72.29256 33078 ft 456 kts 214°
2026-05-06 17:58 37.07851 -72.32614 33075 ft 457 kts 213°
2026-05-06 17:59 37.02073 -72.35942 33078 ft 459 kts 214°
2026-05-06 17:59 36.96256 -72.39289 33074 ft 459 kts 213°
2026-05-06 18:00 36.90389 -72.42657 33077 ft 459 kts 213°
2026-05-06 18:00 36.84571 -72.45984 33083 ft 460 kts 213°
2026-05-06 18:01 36.78726 -72.49303 33081 ft 460 kts 212°
2026-05-06 18:01 36.72477 -72.51607 33081 ft 477 kts 199°
2026-05-06 18:02 36.65720 -72.52106 33083 ft 493 kts 184°
2026-05-06 18:02 36.58798 -72.50621 33093 ft 504 kts 171°
2026-05-06 18:03 36.52038 -72.48341 33104 ft 502 kts 171°
2026-05-06 18:03 36.45215 -72.46048 33107 ft 504 kts 171°
2026-05-06 18:04 36.38490 -72.43842 33110 ft 500 kts 171°
2026-05-06 18:04 36.31696 -72.41641 33116 ft 503 kts 171°
2026-05-06 18:05 36.24937 -72.39453 33118 ft 503 kts 171°
2026-05-06 18:05 36.18118 -72.37243 33122 ft 504 kts 171°
2026-05-06 18:06 36.11317 -72.35049 33117 ft 505 kts 172°
2026-05-06 18:06 36.04439 -72.33797 33117 ft 491 kts 186°
2026-05-06 18:07 35.97591 -72.33968 33126 ft 491 kts 188°
2026-05-06 18:07 35.90764 -72.34226 33127 ft 490 kts 188°
2026-05-06 18:08 35.83895 -72.34472 33123 ft 490 kts 188°
2026-05-06 18:08 35.77037 -72.34710 33124 ft 492 kts 188°
2026-05-06 18:09 35.70188 -72.34941 33127 ft 492 kts 188°
2026-05-06 18:09 35.63298 -72.35172 33126 ft 492 kts 188°
2026-05-06 18:10 35.56473 -72.35397 33128 ft 491 kts 188°
2026-05-06 18:10 35.49625 -72.35628 33133 ft 493 kts 187°
2026-05-06 18:11 35.42716 -72.35862 33141 ft 495 kts 187°
2026-05-06 18:11 35.35897 -72.36088 33137 ft 493 kts 187°
2026-05-06 18:12 35.29022 -72.36314 33138 ft 493 kts 187°
2026-05-06 18:12 35.22218 -72.36536 33138 ft 492 kts 187°
2026-05-06 18:13 35.15348 -72.36769 33142 ft 492 kts 187°
2026-05-06 18:13 35.08492 -72.36999 33140 ft 494 kts 187°
2026-05-06 18:14 35.01621 -72.37224 33134 ft 493 kts 187°
2026-05-06 18:14 34.94758 -72.37446 33135 ft 492 kts 187°
2026-05-06 18:15 34.87907 -72.37682 33128 ft 493 kts 187°
2026-05-06 18:15 34.81029 -72.37901 33130 ft 492 kts 187°
2026-05-06 18:16 34.74165 -72.38100 33130 ft 496 kts 185°
2026-05-06 18:16 34.67238 -72.37660 33135 ft 502 kts 179°
2026-05-06 18:17 34.60272 -72.36885 33137 ft 502 kts 179°
2026-05-06 18:17 34.53296 -72.36115 33137 ft 499 kts 179°
2026-05-06 18:18 34.46328 -72.35361 33136 ft 503 kts 179°
2026-05-06 18:18 34.39331 -72.34600 33146 ft 502 kts 180°
2026-05-06 18:19 34.32380 -72.33855 33146 ft 504 kts 180°
2026-05-06 18:19 34.25367 -72.33100 33142 ft 503 kts 179°
2026-05-06 18:20 34.18366 -72.32342 33142 ft 502 kts 179°
2026-05-06 18:20 34.11395 -72.31593 33149 ft 503 kts 179°
2026-05-06 18:21 34.04384 -72.30840 33143 ft 506 kts 180°
2026-05-06 18:21 33.97343 -72.29868 33150 ft 510 kts 174°
2026-05-06 18:22 33.90339 -72.28066 33148 ft 513 kts 170°
2026-05-06 18:22 33.83371 -72.26120 33151 ft 513 kts 170°
2026-05-06 18:23 33.76414 -72.24199 33150 ft 513 kts 171°
2026-05-06 18:23 33.69407 -72.22279 33152 ft 515 kts 170°
2026-05-06 18:24 33.62416 -72.20364 33152 ft 516 kts 170°
2026-05-06 18:24 33.55404 -72.18450 33152 ft 517 kts 170°
2026-05-06 18:25 33.48386 -72.16534 33154 ft 517 kts 171°
2026-05-06 18:25 33.41352 -72.14621 33154 ft 517 kts 171°
2026-05-06 18:26 33.34333 -72.12714 33154 ft 519 kts 171°
2026-05-06 18:26 33.27276 -72.10804 33153 ft 521 kts 171°
2026-05-06 18:27 33.20200 -72.08887 33154 ft 520 kts 171°
2026-05-06 18:27 33.13145 -72.06980 33150 ft 521 kts 170°
2026-05-06 18:28 33.06094 -72.05073 33160 ft 521 kts 170°
2026-05-06 18:28 32.99032 -72.03176 33162 ft 521 kts 169°
2026-05-06 18:29 32.91932 -72.01263 33150 ft 522 kts 170°
2026-05-06 18:29 32.84869 -71.99378 33159 ft 523 kts 170°
2026-05-06 18:30 32.77766 -71.97459 33155 ft 525 kts 170°
2026-05-06 18:30 32.70625 -71.95540 33162 ft 524 kts 170°
2026-05-06 18:31 32.63501 -71.93642 33156 ft 526 kts 170°
2026-05-06 18:31 32.56375 -71.91745 33151 ft 527 kts 170°
2026-05-06 18:32 32.49169 -71.89835 33151 ft 528 kts 170°
2026-05-06 18:32 32.42008 -71.87922 33169 ft 528 kts 170°
2026-05-06 18:33 32.34839 -71.86008 33170 ft 529 kts 170°
2026-05-06 18:33 32.27634 -71.84105 33172 ft 530 kts 170°
2026-05-06 18:34 32.20472 -71.82238 33183 ft 530 kts 169°
2026-05-06 18:34 32.13261 -71.80302 33169 ft 531 kts 169°
2026-05-06 18:35 32.06050 -71.78401 33173 ft 532 kts 169°
2026-05-06 18:35 31.98807 -71.76494 33180 ft 534 kts 170°
2026-05-06 18:36 31.91559 -71.74587 33172 ft 534 kts 170°
2026-05-06 18:36 31.84325 -71.72693 33174 ft 533 kts 169°
2026-05-06 18:37 31.77061 -71.70786 33176 ft 534 kts 170°
2026-05-06 18:37 31.69790 -71.68900 33180 ft 534 kts 169°
2026-05-06 18:38 31.62580 -71.67007 33180 ft 534 kts 169°
2026-05-06 18:38 31.55304 -71.65112 33181 ft 534 kts 169°
2026-05-06 18:39 31.48042 -71.63209 33175 ft 534 kts 169°
2026-05-06 18:40 31.37205 -71.60411 33175 ft 533 kts 169°
2026-05-06 18:40 31.29959 -71.58529 33176 ft 534 kts 169°
2026-05-06 18:41 31.22664 -71.56638 33173 ft 534 kts 169°
2026-05-06 18:41 31.15432 -71.54767 33172 ft 534 kts 169°
2026-05-06 18:42 31.08193 -71.52881 33175 ft 534 kts 169°
2026-05-06 18:42 31.00931 -71.51004 33176 ft 534 kts 169°
2026-05-06 18:43 30.93690 -71.49144 33179 ft 534 kts 169°
2026-05-06 18:43 30.86450 -71.47287 33177 ft 533 kts 169°
2026-05-06 18:44 30.79173 -71.45422 33179 ft 533 kts 169°
2026-05-06 18:44 30.71965 -71.43581 33180 ft 533 kts 169°
2026-05-06 18:45 30.64709 -71.41730 33179 ft 533 kts 169°
2026-05-06 18:45 30.57447 -71.39878 33181 ft 533 kts 170°
2026-05-06 18:46 30.50205 -71.38036 33179 ft 533 kts 170°
2026-05-06 18:46 30.42963 -71.36198 33181 ft 533 kts 169°
2026-05-06 18:47 30.35692 -71.34348 33177 ft 533 kts 171°
2026-05-06 18:47 30.28480 -71.32522 33177 ft 532 kts 170°
2026-05-06 18:48 30.21264 -71.30699 33178 ft 532 kts 170°
2026-05-06 18:48 30.14011 -71.28864 33176 ft 532 kts 170°
2026-05-06 18:49 30.06776 -71.27031 33180 ft 532 kts 170°
2026-05-06 18:49 29.99527 -71.25201 33176 ft 532 kts 169°
2026-05-06 18:50 29.92303 -71.23370 33174 ft 532 kts 169°
2026-05-06 18:50 29.85093 -71.21548 33176 ft 531 kts 170°
2026-05-06 18:51 29.77875 -71.19734 33171 ft 532 kts 169°
2026-05-06 18:51 29.70659 -71.17928 33174 ft 530 kts 170°
2026-05-06 18:52 29.63459 -71.16129 33172 ft 530 kts 170°
2026-05-06 18:52 29.56262 -71.14339 33171 ft 529 kts 169°
2026-05-06 18:53 29.49043 -71.12536 33170 ft 529 kts 169°
2026-05-06 18:53 29.41873 -71.10748 33167 ft 529 kts 169°
2026-05-06 18:54 29.34698 -71.08963 33163 ft 528 kts 169°
2026-05-06 18:54 29.27494 -71.07172 33161 ft 528 kts 169°
2026-05-06 18:55 29.20327 -71.05392 33160 ft 527 kts 169°
2026-05-06 18:55 29.13127 -71.03606 33161 ft 527 kts 169°
2026-05-06 18:56 29.05980 -71.01839 33161 ft 527 kts 169°
2026-05-06 18:56 28.98797 -71.00063 33160 ft 527 kts 169°
2026-05-06 18:57 28.91666 -70.98294 33158 ft 527 kts 169°
2026-05-06 18:57 28.84499 -70.96521 33154 ft 526 kts 169°
2026-05-06 18:58 28.77313 -70.94758 33155 ft 526 kts 169°
2026-05-06 18:58 28.70167 -70.93010 33152 ft 526 kts 169°
2026-05-06 18:59 28.63040 -70.91264 33154 ft 526 kts 169°
2026-05-06 18:59 28.55844 -70.89500 33148 ft 527 kts 168°
2026-05-06 19:00 28.48668 -70.87739 33148 ft 527 kts 169°
2026-05-06 19:00 28.41501 -70.85989 33146 ft 525 kts 169°
2026-05-06 19:01 28.34391 -70.84251 33146 ft 525 kts 168°
2026-05-06 19:01 28.27199 -70.82488 33145 ft 527 kts 169°
2026-05-06 19:02 28.20061 -70.80744 33140 ft 526 kts 168°
2026-05-06 19:02 28.12916 -70.79009 33137 ft 525 kts 168°
2026-05-06 19:03 28.05753 -70.77275 33133 ft 525 kts 169°
2026-05-06 19:03 27.98608 -70.75549 33138 ft 524 kts 168°
2026-05-06 19:04 27.91460 -70.73817 33135 ft 524 kts 168°
2026-05-06 19:04 27.84327 -70.72092 33132 ft 524 kts 169°
2026-05-06 19:05 27.77210 -70.70386 33127 ft 524 kts 169°
2026-05-06 19:05 27.70087 -70.68676 33122 ft 523 kts 169°
2026-05-06 19:06 27.62948 -70.66959 33119 ft 522 kts 169°
2026-05-06 19:06 27.55831 -70.65249 33120 ft 522 kts 169°
2026-05-06 19:07 27.48745 -70.63545 33117 ft 522 kts 169°
2026-05-06 19:07 27.41639 -70.61842 33118 ft 521 kts 169°
2026-05-06 19:08 27.34529 -70.60139 33118 ft 522 kts 169°
2026-05-06 19:08 27.27410 -70.58439 33119 ft 521 kts 169°
2026-05-06 19:09 27.20324 -70.56744 33119 ft 521 kts 169°
2026-05-06 19:09 27.13255 -70.55055 33121 ft 520 kts 169°
2026-05-06 19:10 27.06150 -70.53365 33118 ft 520 kts 168°
2026-05-06 19:10 26.99108 -70.51677 33119 ft 520 kts 168°
2026-05-06 19:11 26.92032 -70.49990 33120 ft 520 kts 168°
2026-05-06 19:11 26.84935 -70.48303 33118 ft 520 kts 168°
2026-05-06 19:12 26.77871 -70.46626 33119 ft 520 kts 169°
2026-05-06 19:12 26.70753 -70.44945 33119 ft 520 kts 168°
2026-05-06 19:13 26.63684 -70.43274 33119 ft 519 kts 168°
2026-05-06 19:13 26.56611 -70.41610 33119 ft 519 kts 169°
2026-05-06 19:14 26.49527 -70.39947 33119 ft 520 kts 169°
2026-05-06 19:14 26.42448 -70.38283 33119 ft 519 kts 168°
2026-05-06 19:15 26.35378 -70.36616 33119 ft 519 kts 169°
2026-05-06 19:15 26.28294 -70.34946 33119 ft 519 kts 169°
2026-05-06 19:16 26.21238 -70.33289 33119 ft 519 kts 169°
2026-05-06 19:16 26.14151 -70.31625 33120 ft 518 kts 169°
2026-05-06 19:17 26.07090 -70.29971 33119 ft 518 kts 169°
2026-05-06 19:17 26.00028 -70.28322 33118 ft 518 kts 169°
2026-05-06 19:18 25.92971 -70.26677 33119 ft 518 kts 169°
2026-05-06 19:18 25.85883 -70.25026 33117 ft 519 kts 169°
2026-05-06 19:19 25.78826 -70.23381 33114 ft 519 kts 169°
2026-05-06 19:19 25.71752 -70.21735 33111 ft 518 kts 169°
2026-05-06 19:20 25.64691 -70.20095 33108 ft 517 kts 169°
2026-05-06 19:20 25.57668 -70.18469 33108 ft 517 kts 169°
2026-05-06 19:21 25.50619 -70.16840 33109 ft 517 kts 169°
2026-05-06 19:21 25.43588 -70.15215 33107 ft 515 kts 169°
2026-05-06 19:22 25.36541 -70.13585 33107 ft 515 kts 169°
2026-05-06 19:22 25.29516 -70.11961 33105 ft 515 kts 169°
2026-05-06 19:23 25.22522 -70.10346 33103 ft 515 kts 169°
2026-05-06 19:23 25.15484 -70.08721 33101 ft 515 kts 169°
2026-05-06 19:24 25.08479 -70.07103 33099 ft 515 kts 169°
2026-05-06 19:24 25.01426 -70.05577 33099 ft 515 kts 172°
2026-05-06 19:25 24.94309 -70.04841 33102 ft 512 kts 179°
2026-05-06 19:25 24.87179 -70.04528 33097 ft 512 kts 180°
2026-05-06 19:26 24.80075 -70.04227 33098 ft 512 kts 179°
2026-05-06 19:26 24.72947 -70.03902 33099 ft 511 kts 179°
2026-05-06 19:27 24.65854 -70.03574 33099 ft 512 kts 179°
2026-05-06 19:27 24.58720 -70.03249 33098 ft 511 kts 179°
2026-05-06 19:28 24.51591 -70.02918 33098 ft 510 kts 179°
2026-05-06 19:28 24.44535 -70.02595 33097 ft 510 kts 179°
2026-05-06 19:29 24.37425 -70.02270 33097 ft 510 kts 179°
2026-05-06 19:29 24.30322 -70.01951 33097 ft 510 kts 179°
2026-05-06 19:30 24.23226 -70.01625 33098 ft 509 kts 179°
2026-05-06 19:30 24.16152 -70.01380 33098 ft 508 kts 182°
2026-05-06 19:31 24.09080 -70.01444 33096 ft 509 kts 182°
2026-05-06 19:31 23.98441 -70.01566 33094 ft 508 kts 182°
2026-05-06 19:32 23.91330 -70.01648 33095 ft 508 kts 182°
2026-05-06 19:32 23.84249 -70.01726 33093 ft 508 kts 182°
2026-05-06 19:33 23.77157 -70.01796 33088 ft 508 kts 182°
2026-05-06 19:33 23.70011 -70.01871 33088 ft 508 kts 182°
2026-05-06 19:34 23.62940 -70.01949 33088 ft 507 kts 182°
2026-05-06 19:34 23.55851 -70.02026 33086 ft 507 kts 182°
2026-05-06 19:35 23.48706 -70.02105 33085 ft 508 kts 182°
2026-05-06 19:35 23.41596 -70.02182 33084 ft 509 kts 182°
2026-05-06 19:36 23.34504 -70.02249 33085 ft 507 kts 182°
2026-05-06 19:36 23.27434 -70.02319 33083 ft 507 kts 182°
2026-05-06 19:37 23.20348 -70.02390 33081 ft 507 kts 182°
2026-05-06 19:37 23.13225 -70.02466 33078 ft 508 kts 182°
2026-05-06 19:38 23.06119 -70.02542 33075 ft 508 kts 182°
2026-05-06 19:38 22.98981 -70.02618 33073 ft 507 kts 182°
2026-05-06 19:39 22.91922 -70.02692 33077 ft 506 kts 182°
2026-05-06 19:39 22.84764 -70.02764 33076 ft 506 kts 182°
2026-05-06 19:40 22.77649 -70.02838 33077 ft 507 kts 182°
2026-05-06 19:40 22.70554 -70.02908 33078 ft 508 kts 182°
2026-05-06 19:41 22.63492 -70.02989 33078 ft 506 kts 182°
2026-05-06 19:41 22.56425 -70.03070 33078 ft 506 kts 182°
2026-05-06 19:42 22.49321 -70.03146 33079 ft 507 kts 181°
2026-05-06 19:42 22.42221 -70.03217 33077 ft 507 kts 182°
2026-05-06 19:43 22.35125 -70.03291 33077 ft 506 kts 181°
2026-05-06 19:43 22.28014 -70.03364 33077 ft 506 kts 182°
2026-05-06 19:44 22.20893 -70.03438 33080 ft 507 kts 181°
2026-05-06 19:44 22.13832 -70.03509 33078 ft 506 kts 181°
2026-05-06 19:45 22.06706 -70.03580 33076 ft 508 kts 181°
2026-05-06 19:45 21.99661 -70.03653 33073 ft 507 kts 181°
2026-05-06 19:46 21.92532 -70.03713 33073 ft 507 kts 181°
2026-05-06 19:46 21.85478 -70.03788 33068 ft 507 kts 181°
2026-05-06 19:47 21.78396 -70.03867 33069 ft 506 kts 181°
2026-05-06 19:47 21.71328 -70.03935 33064 ft 505 kts 181°
2026-05-06 19:48 21.64238 -70.04005 33062 ft 506 kts 181°
2026-05-06 19:48 21.57134 -70.04077 33058 ft 506 kts 181°
2026-05-06 19:49 21.50056 -70.04155 33054 ft 505 kts 181°
2026-05-06 19:49 21.43017 -70.04226 33054 ft 505 kts 181°
2026-05-06 19:50 21.35968 -70.04295 33057 ft 505 kts 181°
2026-05-06 19:50 21.28908 -70.04366 33059 ft 504 kts 181°
2026-05-06 19:51 21.21851 -70.04441 33056 ft 504 kts 181°
2026-05-06 19:51 21.14746 -70.04514 33058 ft 504 kts 181°
2026-05-06 19:52 21.07627 -70.04588 33054 ft 505 kts 181°
2026-05-06 19:52 21.00515 -70.04658 33052 ft 506 kts 181°
2026-05-06 19:53 20.93465 -70.04723 33051 ft 503 kts 181°
2026-05-06 19:53 20.86441 -70.04789 33052 ft 503 kts 181°
2026-05-06 19:54 20.79427 -70.04861 33049 ft 505 kts 181°
2026-05-06 19:54 20.72379 -70.04934 33041 ft 503 kts 181°
2026-05-06 19:55 20.65347 -70.05001 33042 ft 503 kts 181°
2026-05-06 19:55 20.58311 -70.05074 33036 ft 503 kts 181°
2026-05-06 19:56 20.51276 -70.05147 33038 ft 503 kts 181°
2026-05-06 19:56 20.44208 -70.05212 33033 ft 504 kts 181°
2026-05-06 19:57 20.37213 -70.05283 33033 ft 503 kts 181°
2026-05-06 19:57 20.30145 -70.05357 33026 ft 503 kts 181°
2026-05-06 19:58 20.23169 -70.05427 33028 ft 503 kts 181°
2026-05-06 19:58 20.16195 -70.04678 32929 ft 499 kts 164°
2026-05-06 19:59 20.12940 -70.03496 32507 ft 492 kts 156°
2026-05-06 19:59 20.09782 -70.02027 31839 ft 491 kts 154°
2026-05-06 19:59 20.06674 -70.00511 31104 ft 492 kts 154°
2026-05-06 19:59 20.03516 -69.98968 29983 ft 502 kts 155°
2026-05-06 20:00 20.00289 -69.97404 28634 ft 516 kts 155°
2026-05-06 20:00 19.97028 -69.95846 27689 ft 516 kts 156°
2026-05-06 20:00 19.93776 -69.94306 27101 ft 503 kts 156°
2026-05-06 20:00 19.90598 -69.92808 26309 ft 494 kts 156°
2026-05-06 20:01 19.87438 -69.91322 25454 ft 487 kts 156°
2026-05-06 20:01 19.84349 -69.89872 24609 ft 479 kts 156°
2026-05-06 20:01 19.81344 -69.88460 23689 ft 470 kts 156°
2026-05-06 20:01 19.78353 -69.87045 22938 ft 461 kts 157°
2026-05-06 20:02 19.75482 -69.85690 22356 ft 452 kts 157°
2026-05-06 20:02 19.72616 -69.84342 21847 ft 443 kts 157°
2026-05-06 20:02 19.69834 -69.83035 21167 ft 434 kts 158°
2026-05-06 20:02 19.67093 -69.81750 20404 ft 426 kts 158°
2026-05-06 20:03 19.64378 -69.80480 19634 ft 418 kts 158°
2026-05-06 20:03 19.61751 -69.79247 18880 ft 412 kts 158°
2026-05-06 20:03 19.59152 -69.78026 18133 ft 405 kts 158°
2026-05-06 20:03 19.56582 -69.76842 17392 ft 398 kts 161°
2026-05-06 20:04 19.53909 -69.76167 16640 ft 388 kts 176°
2026-05-06 20:04 19.51259 -69.75939 15905 ft 382 kts 179°
2026-05-06 20:04 19.48597 -69.75773 15148 ft 377 kts 179°
2026-05-06 20:04 19.46022 -69.75589 14429 ft 371 kts 178°
2026-05-06 20:05 19.43443 -69.75369 13898 ft 366 kts 177°
2026-05-06 20:05 19.40916 -69.75132 13396 ft 364 kts 177°
2026-05-06 20:05 19.38396 -69.74882 13091 ft 362 kts 176°
2026-05-06 20:05 19.35876 -69.74625 13020 ft 362 kts 176°
2026-05-06 20:06 19.33361 -69.74383 13004 ft 362 kts 178°
2026-05-06 20:06 19.30834 -69.74303 12995 ft 362 kts 180°
2026-05-06 20:06 19.28286 -69.74267 13001 ft 362 kts 180°
2026-05-06 20:06 19.25777 -69.74239 13006 ft 362 kts 180°
2026-05-06 20:07 19.23226 -69.74211 12995 ft 363 kts 180°
2026-05-06 20:07 19.20713 -69.74182 12650 ft 361 kts 180°
2026-05-06 20:07 19.18193 -69.74153 12248 ft 358 kts 180°
2026-05-06 20:07 19.15684 -69.74121 11844 ft 355 kts 180°
2026-05-06 20:08 19.13214 -69.74087 11434 ft 351 kts 180°
2026-05-06 20:08 19.10792 -69.74052 11010 ft 347 kts 180°
2026-05-06 20:08 19.08385 -69.74013 10574 ft 342 kts 180°
2026-05-06 20:08 19.06018 -69.73986 10139 ft 337 kts 180°
2026-05-06 20:09 19.03700 -69.73962 9710 ft 327 kts 180°
2026-05-06 20:09 19.01456 -69.73937 9340 ft 317 kts 180°
2026-05-06 20:09 18.99274 -69.73912 8971 ft 307 kts 179°
2026-05-06 20:09 18.97154 -69.73886 8612 ft 300 kts 179°
2026-05-06 20:10 18.95083 -69.73856 8249 ft 292 kts 179°
2026-05-06 20:10 18.93072 -69.73826 7888 ft 286 kts 178°
2026-05-06 20:10 18.91090 -69.73798 7527 ft 279 kts 178°
2026-05-06 20:10 18.89133 -69.73771 7169 ft 278 kts 178°
2026-05-06 20:11 18.87195 -69.73747 6810 ft 276 kts 178°
2026-05-06 20:11 18.85296 -69.73715 6465 ft 274 kts 178°
2026-05-06 20:11 18.83362 -69.73689 6117 ft 272 kts 178°
2026-05-06 20:11 18.81484 -69.73665 5784 ft 269 kts 177°
2026-05-06 20:12 18.79619 -69.73662 5449 ft 266 kts 177°
2026-05-06 20:12 18.77770 -69.73647 5110 ft 264 kts 175°
2026-05-06 20:12 18.75930 -69.73582 4829 ft 260 kts 177°
2026-05-06 20:12 18.74126 -69.73544 4608 ft 259 kts 178°
2026-05-06 20:13 18.72300 -69.73530 4395 ft 258 kts 178°
2026-05-06 20:13 18.70538 -69.73508 4197 ft 251 kts 178°
2026-05-06 20:13 18.68805 -69.73481 4003 ft 243 kts 178°
2026-05-06 20:13 18.67150 -69.73469 3825 ft 236 kts 177°
2026-05-06 20:14 18.65514 -69.73453 3625 ft 229 kts 177°
2026-05-06 20:14 18.63940 -69.73425 3437 ft 222 kts 177°
2026-05-06 20:14 18.62394 -69.73413 3248 ft 216 kts 176°
2026-05-06 20:14 18.60914 -69.73397 3104 ft 207 kts 174°
2026-05-06 20:15 18.59511 -69.73188 3044 ft 202 kts 161°
2026-05-06 20:15 18.58198 -69.72738 2866 ft 191 kts 157°
2026-05-06 20:15 18.56983 -69.72272 2690 ft 180 kts 157°
2026-05-06 20:15 18.55838 -69.71825 2527 ft 170 kts 158°
2026-05-06 20:16 18.54754 -69.71332 2382 ft 168 kts 153°
2026-05-06 20:16 18.53723 -69.70855 2200 ft 155 kts 156°
2026-05-06 20:16 18.52740 -69.70493 2011 ft 144 kts 160°
2026-05-06 20:16 18.51776 -69.70194 1806 ft 143 kts 160°
2026-05-06 20:17 18.50834 -69.69857 1597 ft 142 kts 156°
2026-05-06 20:17 18.49910 -69.69473 1342 ft 143 kts 156°
2026-05-06 20:17 18.48984 -69.69112 1105 ft 142 kts 159°
2026-05-06 20:17 18.48049 -69.68771 904 ft 141 kts 159°
2026-05-06 20:18 18.47122 -69.68433 694 ft 141 kts 159°
2026-05-06 20:18 18.46185 -69.68081 493 ft 141 kts 160°
2026-05-06 20:18 18.45266 -69.67740 295 ft 140 kts 161°
2026-05-06 20:18 18.44342 -69.67398 86 ft 139 kts 161°
2026-05-06 20:19 18.43448 -69.67067 742 ft 131 kts 160°
2026-05-06 20:19 18.42620 -69.66718 1387 ft 134 kts 152°
2026-05-06 20:19 18.41879 -69.66063 1975 ft 147 kts 127°
2026-05-06 20:19 18.41603 -69.65036 2630 ft 157 kts 89°
2026-05-06 20:20 18.41876 -69.63837 2981 ft 189 kts 74°
2026-05-06 20:20 18.42677 -69.62508 3024 ft 239 kts 43°
2026-05-06 20:20 18.44162 -69.61729 2946 ft 242 kts 10°
2026-05-06 20:20 18.45846 -69.61826 2995 ft 244 kts 351°
2026-05-06 20:21 18.47518 -69.62137 3018 ft 243 kts 351°
2026-05-06 20:21 18.49179 -69.62427 3023 ft 242 kts 351°
2026-05-06 20:21 18.50861 -69.62743 3023 ft 241 kts 351°
2026-05-06 20:21 18.52520 -69.63041 3026 ft 241 kts 351°
2026-05-06 20:22 18.54173 -69.63348 3016 ft 242 kts 352°
2026-05-06 20:22 18.55835 -69.63660 3011 ft 241 kts 353°
2026-05-06 20:22 18.57497 -69.63953 3010 ft 241 kts 353°
2026-05-06 20:22 18.59149 -69.64266 3012 ft 242 kts 354°
2026-05-06 20:23 18.60726 -69.64806 2961 ft 235 kts 327°
2026-05-06 20:23 18.61758 -69.66078 2973 ft 224 kts 292°
2026-05-06 20:23 18.62034 -69.67657 2989 ft 221 kts 262°
2026-05-06 20:23 18.61612 -69.69188 3071 ft 218 kts 244°
2026-05-06 20:24 18.61033 -69.70673 3068 ft 220 kts 246°
2026-05-06 20:24 18.60436 -69.72163 3016 ft 217 kts 237°
2026-05-06 20:24 18.59353 -69.73125 2964 ft 198 kts 193°
2026-05-06 20:24 18.58075 -69.72980 2916 ft 180 kts 153°
2026-05-06 20:25 18.56979 -69.72341 2700 ft 179 kts 149°
2026-05-06 20:25 18.55872 -69.71746 2453 ft 178 kts 153°
2026-05-06 20:25 18.54732 -69.71225 2197 ft 177 kts 156°
2026-05-06 20:25 18.53583 -69.70773 1933 ft 173 kts 159°
2026-05-06 20:26 18.52453 -69.70366 1713 ft 166 kts 159°
2026-05-06 20:26 18.51415 -69.69994 1514 ft 149 kts 158°
2026-05-06 20:26 18.50471 -69.69646 1320 ft 142 kts 159°
2026-05-06 20:26 18.49525 -69.69295 1146 ft 142 kts 158°
2026-05-06 20:27 18.48593 -69.68950 943 ft 141 kts 159°
2026-05-06 20:27 18.47670 -69.68610 763 ft 141 kts 158°
2026-05-06 20:27 18.46739 -69.68271 575 ft 141 kts 161°
2026-05-06 20:27 18.45810 -69.67938 387 ft 140 kts 161°
2026-05-06 20:28 18.44885 -69.67601 198 ft 139 kts 160°
2026-05-06 20:28 18.43983 -69.67267 67 ft 129 kts 160°
2026-05-06 20:28 18.43304 -69.67019 65 ft 72 kts 159°
2026-05-06 20:28 18.42967 -69.66908 69 ft 23 kts 199°
2026-05-06 20:29 18.42942 -69.67059 64 ft 22 kts 274°
2026-05-06 20:29 18.42958 -69.67226 60 ft 23 kts 276°
2026-05-06 20:29 18.42975 -69.67368 55 ft 15 kts 287°
2026-05-06 20:29 18.43050 -69.67432 54 ft 13 kts 342°
2026-05-06 20:30 18.43140 -69.67468 53 ft 14 kts 339°
2026-05-06 20:30 18.43170 -69.67543 52 ft 7 kts 239°
2026-05-06 20:30 18.43155 -69.67570 52 ft 1 kts 240°
2026-05-06 20:31 18.43153 -69.67574 51 ft 0 kts 240°